TimeCST,TemperatureF,Dew PointF,Humidity,Sea Level PressureIn,VisibilityMPH,Wind Direction,Wind SpeedMPH,Gust SpeedMPH,PrecipitationIn,Events,Conditions,WindDirDegrees,DateUTC
12:52 AM,48.9,32.0,52,30.04,10.0,NNE,15.0,-,N/A,,Clear,30,2013-11-18 06:52:00
1:52 AM,46.0,33.1,61,30.14,10.0,WSW,6.9,-,N/A,,Clear,250,2013-11-18 07:52:00
2:52 AM,41.0,32.0,70,30.15,10.0,North,4.6,-,N/A,,Clear,350,2013-11-18 08:52:00
3:52 AM,42.1,33.1,70,30.18,10.0,Calm,Calm,-,N/A,,Clear,0,2013-11-18 09:52:00
4:52 AM,37.9,32.0,79,30.20,10.0,North,4.6,-,N/A,,Clear,10,2013-11-18 10:52:00
5:52 AM,39.0,32.0,76,30.22,10.0,Calm,Calm,-,N/A,,Clear,0,2013-11-18 11:52:00
6:52 AM,37.0,32.0,82,30.25,10.0,Calm,Calm,-,N/A,,Clear,0,2013-11-18 12:52:00
7:52 AM,39.0,34.0,82,30.27,10.0,NNW,3.5,-,N/A,,Clear,340,2013-11-18 13:52:00
8:52 AM,46.0,35.1,66,30.28,10.0,NNW,6.9,-,N/A,,Clear,340,2013-11-18 14:52:00
9:52 AM,51.1,36.0,56,30.29,10.0,North,4.6,-,N/A,,Clear,350,2013-11-18 15:52:00
10:52 AM,55.0,34.0,45,30.29,10.0,North,4.6,-,N/A,,Clear,10,2013-11-18 16:52:00
11:52 AM,59.0,30.0,33,30.28,10.0,NE,4.6,-,N/A,,Clear,50,2013-11-18 17:52:00
12:52 PM,61.0,23.0,23,30.26,10.0,NE,8.1,-,N/A,,Clear,40,2013-11-18 18:52:00
1:52 PM,62.1,23.0,22,30.25,10.0,NE,6.9,-,N/A,,Clear,50,2013-11-18 19:52:00
2:52 PM,61.0,26.1,26,30.24,10.0,ENE,6.9,-,N/A,,Clear,60,2013-11-18 20:52:00
3:52 PM,60.1,28.0,30,30.24,10.0,East,5.8,-,N/A,,Clear,90,2013-11-18 21:52:00
4:52 PM,57.0,27.0,32,30.25,10.0,East,3.5,-,N/A,,Clear,90,2013-11-18 22:52:00
5:52 PM,53.1,30.0,41,30.26,10.0,East,3.5,-,N/A,,Clear,100,2013-11-18 23:52:00
6:52 PM,50.0,28.0,43,30.26,10.0,East,5.8,-,N/A,,Clear,90,2013-11-19 00:52:00
7:52 PM,46.0,30.9,56,30.26,10.0,ENE,5.8,-,N/A,,Clear,70,2013-11-19 01:52:00
8:52 PM,44.1,30.9,60,30.26,10.0,East,4.6,-,N/A,,Clear,80,2013-11-19 02:52:00
9:52 PM,46.0,30.0,54,30.26,10.0,East,5.8,-,N/A,,Clear,90,2013-11-19 03:52:00
10:52 PM,46.0,30.0,54,30.25,10.0,East,4.6,-,N/A,,Clear,100,2013-11-19 04:52:00
11:52 PM,46.9,30.9,54,30.24,10.0,ESE,8.1,-,N/A,,Clear,120,2013-11-19 05:52:00